Starlink 11246

operational
NORAD ID: 60932 Int'l Des: 2024-155 Owner: SPXS Country: US Constellation: starlink
LEOCIRCULAR

About Starlink 11246

Description loading...

Live Position

Loading 3D Globe...

Upcoming Passes

Altitude History

Altitude vs Time

uPlot chart will show altitude changes over time

Two-Line Element Set

1 60932U 24155J 25305.57711329 -.00001123 00000-0 -44173-5 0 9990
2 60932 53.1588 252.5943 0000979 95.2960 264.8169 15.69704916 68286
Epoch: Nov 1, 2025 • Age: 7 hours

Current Status

Altitude 378.5 km
Velocity 7.68 km/s
Sub-Earth Point -52.27°S, 148.04°E
Launch Date Aug 31, 2024
Age 1.1 years
Type internet

Technical Details

Classification Payload
Mass 960.00 kg
Dry Mass 910.00 kg
Total Mass 960.00 kg
Length 0.30 m
Diameter 4.10 m
Span 29.00 m
Shape Box + pan
Manufacturer SPXS
Bus Type Starlink V2MD
Phase Status In Orbit
Owner/State SPXS/US

Large Constellations

Loading constellations...